[[{"header":{"parameterUnit":"m.s-1","parameterCategory":1,"la1":30.2991,"la2":30.254,"lo1":-89.0895,"lo2":-89.0444,"dy":0.0017,"dx":0.0017,"nx":28,"ny":28,"refTime":"2024-04-04T03:00:00:Z","depth":0,"parameterNumber":2,"parameterNumberName":"U-component_of_WINDS"},"data":[0,0,0,0,0,0,0,0,0,0,0,0,0,0,0,0,0,0,0,0,0,0,0,0,0,0,0,0,0,0,0,0,0,0,0,0,0,0,0,0,0,0,0,0,0,0,0,0,0,0,0,0,0,0,0,0,0,0,0.122,0.1219,0,0.1127,0.1126,0.1125,0.1056,0.1056,0.1055,0.1054,0.0959,0.0958,0.0956,0,0,0,0,0,0,0,0,0,0,0,0,0,0.1337,0.1336,0.122,0.1219,0.1217,0.1127,0.1126,0.1125,0.1056,0.1056,0.1055,0.1054,0.096,0.0958,0.0955,0,0,0,0,0,0,0,0,0,0,0,0,0,0.127,0.1335,0.122,0.1172,0.1167,0.1127,0.1126,0.1124,0.1057,0.1056,0.1055,0.1054,0.0961,0.0958,0.0955,0.0955,0,0,0.0946,0.0945,0,0,0,0,0,0,0,0,0.1274,0.1265,0.1181,0.1176,0.117,0.1102,0.1132,0.1068,0.1057,0.1099,0.1054,0.1053,0.1008,0.1001,0.0985,0.0951,0.0946,0.0946,0.0944,0.0943,0.0942,0,0,0,0,0,0,0,0.1278,0.1269,0.1183,0.1179,0.1173,0.1156,0.1145,0.112,0.1059,0.1095,0.109,0.108,0.1005,0.0988,0.0983,0.0945,0.0946,0.0943,0.0941,0.094,0.0907,0.0908,0,0,0,0,0,0,0.1291,0.1273,0.1186,0.118,0.1221,0.1154,0.1143,0.1125,0.1059,0.1049,0.1081,0.1077,0.0994,0.0986,0.0979,0.0976,0.0943,0.094,0.0938,0.0906,0.0907,0.0908,0,0,0,0,0,0,0.1293,0.1283,0.119,0.1225,0.1212,0.1153,0.1134,0.1124,0.1107,0.1049,0.1037,0.1075,0.0993,0.0983,0.0962,0.0972,0.0939,0.0936,0.0905,0.0906,0.0907,0.0969,0,0,0,0,0,0,0.1297,0.1285,0.1284,0.1226,0.1211,0.1174,0.1135,0.1122,0.1103,0.1097,0.1041,0.1031,0.0991,0.0967,0.0959,0.0967,0.0934,0.0904,0.0905,0.0907,0.0966,0.0973,0.0978,0,0,0,0,0,0.1301,0.1305,0.1285,0.1274,0.1209,0.1175,0.1166,0.1121,0.1104,0.1103,0.1065,0.1032,0.0972,0.0965,0.0956,0.0963,0.0903,0.0905,0.0907,0.0963,0.0971,0.0978,0,0,0,0,0,0,0.1366,0.1296,0.1273,0.1258,0.1223,0.1163,0.1161,0.1131,0.11,0.1096,0.1041,0.1029,0.1014,0.0986,0.098,0.096,0.0933,0.0933,0.0979,0.0986,0.0992,0.1,0.0931,0,0,0,0,0,0.1378,0.1357,0.1297,0.1289,0.1273,0.122,0.1204,0.1172,0.1134,0.1119,0.1079,0.1043,0.1016,0.0999,0.0971,0.0961,0.0949,0.0962,0.0968,0.0973,0.0974,0.0968,0.0974,0.0914,0.0914,0.0914,0,0,0.1404,0.1363,0.1353,0.1301,0.1271,0.125,0.1208,0.1188,0.1172,0.1115,0.1093,0.1063,0.1019,0.1004,0.0996,0.0981,0.0988,0.0975,0.098,0.0978,0.0971,0.0977,0.0982,0.0916,0.0915,0.0915,0,0,0.144,0.1407,0.1397,0.1367,0.1321,0.1286,0.1284,0.1229,0.1207,0.1184,0.1141,0.1122,0.1075,0.1046,0.1026,0.1051,0.1021,0.1043,0.1075,0.107,0.1075,0.1079,0.109,0.1094,0.1045,0.1045,0.1045,0,0.1478,0.1445,0.1396,0.1379,0.1358,0.1305,0.1296,0.1269,0.1216,0.1203,0.1187,0.1129,0.1095,0.1074,0.108,0.1064,0.1061,0.105,0.1078,0.1082,0.1085,0.1095,0.1099,0.1048,0.1048,0.1047,0.1047,0,0.1494,0.1472,0.147,0.1421,0.1399,0.1386,0.1336,0.132,0.129,0.1257,0.1234,0.1192,0.1155,0.1147,0.1118,0.1121,0.1114,0.1089,0.1061,0.1095,0.1103,0.1106,0.1053,0.1051,0.105,0.105,0,0,0.157,0.1494,0.1494,0.1472,0.1417,0.1399,0.1383,0.1347,0.1336,0.13,0.1287,0.1249,0.1226,0.1202,0.1169,0.1164,0.1189,0.1139,0.1138,0.1152,0.1193,0.1214,0.1219,0.1168,0.1168,0.1169,0.1197,0,0.1599,0.1569,0.1524,0.1509,0.1489,0.1438,0.1425,0.139,0.1358,0.1337,0.1301,0.1276,0.1246,0.1232,0.1225,0.1188,0.1197,0.1185,0.1156,0.1156,0.1171,0.1223,0.1245,0.1274,0.12,0.1201,0.1201,0,0.1629,0.1598,0.1581,0.1529,0.1518,0.1507,0.1471,0.145,0.141,0.1387,0.1362,0.1325,0.1307,0.128,0.1254,0.1247,0.1232,0.1212,0.1212,0.121,0.1182,0.1224,0.1282,0.1287,0.1205,0.1205,0.1205,0,0.1689,0.1642,0.1626,0.1608,0.1546,0.154,0.1514,0.1472,0.1454,0.1422,0.1409,0.1376,0.1358,0.1333,0.1289,0.1273,0.1268,0.1238,0.125,0.1251,0.1253,0.1254,0.1312,0.124,0.124,0.124,0.124,0,0.1727,0.1719,0.1652,0.1642,0.1632,0.1581,0.1572,0.1541,0.1505,0.1489,0.1442,0.1428,0.137,0.1349,0.1314,0.1299,0.129,0.1272,0.1264,0.1278,0.128,0.1269,0.1267,0.1241,0.1241,0.124,0.124,0,0.1793,0.1747,0.1727,0.167,0.1655,0.1651,0.1602,0.1591,0.1556,0.1536,0.1529,0.1475,0.1448,0.1401,0.136,0.1336,0.1329,0.1312,0.1343,0.1338,0.1354,0.1354,0.1408,0.1413,0.1337,0.1338,0.1338,0,0.1822,0.1814,0.1757,0.1743,0.1719,0.1697,0.1678,0.1627,0.1609,0.1563,0.1558,0.1527,0.15,0.1459,0.1417,0.1385,0.1369,0.139,0.1364,0.1379,0.1372,0.1374,0.1374,0.1397,0.1398,0.1399,0.14,0,0.1878,0.1856,0.1831,0.1798,0.1776,0.1748,0.1717,0.1708,0.165,0.1632,0.1604,0.1584,0.1542,0.1513,0.1476,0.1449,0.1416,0.1408,0.141,0.1425,0.1444,0.1436,0.1362,0.1407,0.1407,0.1406,0.1406,0.1405,0.1928,0.1919,0.1878,0.1852,0.1823,0.1795,0.1783,0.1746,0.1722,0.1685,0.1656,0.1631,0.1591,0.1538,0.1513,0.1492,0.1477,0.1479,0.1479,0.1481,0.1488,0.1446,0.1485,0.1485,0.1484,0.1484,0.1484,0,0.1984,0.1955,0.1931,0.1889,0.1869,0.1838,0.1802,0.1787,0.1766,0.1731,0.1706,0.1674,0.1645,0.16,0.1568,0.1561,0.1545,0.1554,0.1556,0.155,0.1502,0.1505,0.1568,0.1568,0.1568,0.1568,0.1568,0.1568,0.2011,0.1996,0.1969,0.194,0.191,0.1886,0.1868,0.1842,0.1815,0.1782,0.1758,0.1729,0.169,0.1655,0.1628,0.1615,0.1606,0.1622,0.1605,0.1561,0.1553,0.1546,0.1549,0.1619,0.162,0.1654,0.1655,0.1655]},{"header":{"parameterUnit":"m.s-1","parameterCategory":1,"la1":30.2991,"la2":30.254,"lo1":-89.0895,"lo2":-89.0444,"dy":0.0017,"dx":0.0017,"nx":28,"ny":28,"refTime":"2024-04-04T03:00:00:Z","depth":0,"parameterNumber":3,"parameterNumberName":"V-component_of_WINDS"},"data":[0,0,0,0,0,0,0,0,0,0,0,0,0,0,0,0,0,0,0,0,0,0,0,0,0,0,0,0,0,0,0,0,0,0,0,0,0,0,0,0,0,0,0,0,0,0,0,0,0,0,0,0,0,0,0,0,0,0,-2.9511,-2.9511,0,-2.9587,-2.9588,-2.9589,-2.9559,-2.9557,-2.9555,-2.9554,-2.9628,-2.9632,-2.9635,0,0,0,0,0,0,0,0,0,0,0,0,0,-2.9335,-2.9339,-2.9511,-2.9512,-2.9512,-2.9587,-2.9588,-2.9589,-2.9559,-2.9557,-2.9555,-2.9553,-2.9627,-2.9631,-2.9636,0,0,0,0,0,0,0,0,0,0,0,0,0,-2.9412,-2.934,-2.951,-2.9507,-2.9507,-2.9587,-2.9588,-2.9589,-2.956,-2.9557,-2.9554,-2.9552,-2.9626,-2.9631,-2.9636,-2.9723,0,0,-2.9653,-2.9655,0,0,0,0,0,0,0,0,-2.9407,-2.9418,-2.9506,-2.9507,-2.9508,-2.9561,-2.9553,-2.9634,-2.956,-2.954,-2.9554,-2.9551,-2.9608,-2.9614,-2.9634,-2.9726,-2.9729,-2.9653,-2.9657,-2.9659,-2.966,0,0,0,0,0,0,0,-2.9402,-2.9415,-2.9541,-2.9508,-2.9509,-2.95,-2.9508,-2.9568,-2.9587,-2.9541,-2.9539,-2.9549,-2.9607,-2.9629,-2.9636,-2.973,-2.9653,-2.9658,-2.9661,-2.9663,-2.9896,-2.9899,0,0,0,0,0,0,-2.9397,-2.941,-2.9538,-2.9543,-2.945,-2.9505,-2.9514,-2.9546,-2.9587,-2.959,-2.9551,-2.9547,-2.9621,-2.963,-2.9638,-2.9742,-2.9659,-2.9664,-2.9667,-2.9893,-2.9897,-2.99,0,0,0,0,0,0,-2.9393,-2.9409,-2.9535,-2.9476,-2.9492,-2.9511,-2.9548,-2.9549,-2.9571,-2.9594,-2.9597,-2.957,-2.9619,-2.9631,-2.9702,-2.9744,-2.9666,-2.9671,-2.989,-2.9894,-2.9898,-2.995,0,0,0,0,0,0,-2.9389,-2.9408,-2.9442,-2.9477,-2.9495,-2.9599,-2.955,-2.9553,-2.9581,-2.9577,-2.9613,-2.9616,-2.9618,-2.9694,-2.9707,-2.975,-2.9676,-2.9886,-2.9892,-2.9897,-2.9945,-2.9956,-2.9965,0,0,0,0,0,-2.9382,-2.9452,-2.9443,-2.9459,-2.9538,-2.9601,-2.9611,-2.9613,-2.9584,-2.9618,-2.9633,-2.9615,-2.9737,-2.9702,-2.9716,-2.9761,-2.9883,-2.989,-2.9896,-2.994,-2.9953,-2.9965,0,0,0,0,0,0,-2.942,-2.9457,-2.9447,-2.9531,-2.9564,-2.9596,-2.9639,-2.9628,-2.9668,-2.9662,-2.9662,-2.967,-2.9743,-2.9759,-2.9719,-2.9847,-2.9806,-2.9816,-2.9834,-2.9847,-2.9857,-2.9851,-2.968,0,0,0,0,0,-2.9438,-2.9488,-2.9517,-2.9588,-2.9605,-2.9619,-2.9647,-2.9646,-2.9679,-2.9692,-2.9712,-2.9743,-2.9789,-2.9818,-2.9862,-2.9947,-2.9954,-2.9985,-2.9995,-3.0003,-3.0012,-3.0057,-3.0072,-2.9921,-2.9921,-2.9921,0,0,-2.9476,-2.9502,-2.9533,-2.9596,-2.9621,-2.9671,-2.9631,-2.9686,-2.9722,-2.9699,-2.9768,-2.9784,-2.9819,-2.9898,-2.9933,-2.9913,-3.0055,-3.0012,-3.0018,-3.0022,-3.0066,-3.008,-3.0092,-2.9926,-2.9925,-2.9924,0,0,-2.957,-2.9596,-2.9658,-2.9684,-2.9722,-2.9731,-2.9746,-2.9781,-2.9791,-2.986,-2.9844,-2.9887,-2.9966,-2.9991,-3.0015,-3.0119,-3.0104,-3.0133,-3.0186,-3.0231,-3.0242,-3.0253,-3.029,-3.0303,-3.0141,-3.0141,-3.0141,0,-2.9612,-2.9688,-2.969,-2.9747,-2.9775,-2.9758,-2.982,-2.9844,-2.9895,-2.9914,-2.9891,-2.9989,-3.0011,-3.0096,-3.0121,-3.0141,-3.0157,-3.0129,-3.0241,-3.0251,-3.0261,-3.0296,-3.031,-3.0145,-3.0144,-3.0144,-3.0144,0,-2.9737,-2.9791,-2.9836,-2.9886,-2.9919,-2.9978,-2.9988,-3.0021,-3.0017,-3.0028,-3.0098,-3.0125,-3.0173,-3.0192,-3.0189,-3.0276,-3.0263,-3.024,-3.0199,-3.0279,-3.0312,-3.0325,-3.0149,-3.0148,-3.0147,-3.0146,0,0,-2.9858,-2.9909,-2.9925,-2.9948,-2.9989,-3.003,-3.0087,-3.0136,-3.0164,-3.0199,-3.0246,-3.0313,-3.0293,-3.032,-3.0318,-3.0358,-3.0438,-3.0331,-3.0331,-3.0349,-3.0536,-3.0552,-3.0568,-3.0428,-3.0431,-3.0433,-3.0533,0,-2.9955,-3.0058,-3.0062,-3.0155,-3.0204,-3.0188,-3.0238,-3.0268,-3.028,-3.0322,-3.0335,-3.0382,-3.0352,-3.0368,-3.0406,-3.042,-3.0475,-3.0413,-3.0472,-3.0474,-3.0464,-3.0585,-3.0602,-3.0695,-3.0545,-3.0548,-3.0549,0,-3.0083,-3.0123,-3.0222,-3.0257,-3.0277,-3.0322,-3.0367,-3.0408,-3.0441,-3.0447,-3.0477,-3.047,-3.0527,-3.0484,-3.0563,-3.0521,-3.0545,-3.0556,-3.0559,-3.0565,-3.0516,-3.0593,-3.0725,-3.0739,-3.057,-3.0568,-3.0567,0,-3.016,-3.0239,-3.0309,-3.0329,-3.037,-3.0403,-3.0421,-3.0452,-3.0481,-3.0519,-3.0538,-3.0582,-3.0606,-3.064,-3.0644,-3.0613,-3.0724,-3.0681,-3.0729,-3.0729,-3.0753,-3.0751,-3.089,-3.0769,-3.0769,-3.0768,-3.0768,0,-3.0269,-3.033,-3.0344,-3.0387,-3.0454,-3.0457,-3.0523,-3.0539,-3.0567,-3.0612,-3.06,-3.0642,-3.0646,-3.0688,-3.0692,-3.0757,-3.0767,-3.0773,-3.0773,-3.0774,-3.0773,-3.079,-3.0783,-3.0772,-3.0771,-3.0771,-3.077,0,-3.0367,-3.0379,-3.0454,-3.0488,-3.0497,-3.0546,-3.0574,-3.0614,-3.0625,-3.0681,-3.0694,-3.0711,-3.076,-3.0769,-3.0826,-3.0829,-3.0906,-3.09,-3.0895,-3.0895,-3.0942,-3.0937,-3.1096,-3.1117,-3.0982,-3.0983,-3.0985,0,-3.0436,-3.0482,-3.0521,-3.0551,-3.0572,-3.0619,-3.0649,-3.0653,-3.0684,-3.0726,-3.0761,-3.081,-3.0849,-3.0928,-3.0945,-3.0989,-3.0983,-3.1036,-3.099,-3.0989,-3.0984,-3.0981,-3.0985,-3.1044,-3.1046,-3.1047,-3.1048,0,-3.0556,-3.0559,-3.0603,-3.065,-3.0686,-3.0722,-3.0756,-3.078,-3.0789,-3.0824,-3.0876,-3.0906,-3.0966,-3.1014,-3.1058,-3.1075,-3.1063,-3.1063,-3.1076,-3.1077,-3.1073,-3.1076,-3.0919,-3.1059,-3.1058,-3.1057,-3.1056,-3.1056,-3.0641,-3.0682,-3.0716,-3.0765,-3.0791,-3.0823,-3.0863,-3.0879,-3.0922,-3.0972,-3.0972,-3.1028,-3.1059,-3.1117,-3.1138,-3.1181,-3.1163,-3.1183,-3.1188,-3.1193,-3.1197,-3.1066,-3.1188,-3.1188,-3.1188,-3.1188,-3.1187,0,-3.076,-3.0782,-3.0827,-3.0876,-3.0914,-3.0901,-3.0938,-3.097,-3.102,-3.1051,-3.109,-3.1149,-3.1195,-3.1216,-3.1261,-3.1292,-3.1287,-3.1303,-3.1301,-3.1305,-3.121,-3.1194,-3.1306,-3.1306,-3.1306,-3.1306,-3.1306,-3.1306,-3.0827,-3.0895,-3.0903,-3.0984,-3.1004,-3.106,-3.1082,-3.1112,-3.1137,-3.1203,-3.1242,-3.1255,-3.1282,-3.1329,-3.1371,-3.1376,-3.1393,-3.1411,-3.1413,-3.1324,-3.1312,-3.13,-3.1285,-3.1415,-3.1415,-3.1505,-3.1506,-3.1507]}]]